GW1476 Weather Reports


time (UTC)temp
C
wind
direction
speed
KPH
gust
KPH
rain 1hr
cm
rain 24hr
cm
rain mn
cm
humidity
%
barometer
mb
20260901075745 21 225 0.0 0.0 0.00 0.00 0.00 99 1021.3
20260901074532 21 270 0.0 0.0 0.00 0.00 0.00 99 1021.3
20260901073907 21 225 0.0 0.0 0.00 0.00 0.00 99 1021.3
20260901073318 21 180 0.0 0.0 0.00 0.00 0.00 99 1021.3
20260901072722 21 203 0.0 0.0 0.00 0.00 0.00 99 1021.3
20260901072130 21 270 0.0 0.0 0.00 0.00 0.00 99 1021.3
20260901071541 22 248 0.0 0.0 0.00 0.00 0.00 99 1020.9
20260901070311 22 203 0.0 0.0 0.00 0.00 0.00 99 1020.9
20260901065724 21 203 0.0 0.0 0.00 0.00 0.00 99 1021.3
20260901065128 21 315 0.0 0.0 0.00 0.00 0.00 99 1021.3
20260901064544 22 203 0.0 0.0 0.00 0.00 0.00 99 1021.3
20260901063940 21 248 0.0 0.0 0.00 0.00 0.00 99 1021.3
20260901062717 22 225 0.0 0.0 0.00 0.00 0.00 99 1021.3
20260901062132 22 225 0.0 0.0 0.00 0.00 0.00 99 1021.3
20260901061535 22 203 0.0 0.0 0.00 0.00 0.00 99 1021.3
20260901060943 22 225 0.0 0.0 0.00 0.00 0.00 99 1021.3
20260901060321 22 203 0.0 0.0 0.00 0.00 0.00 99 1021.3
20260901055735 22 203 0.0 0.0 0.00 0.00 0.00 99 1021.6
20260901054517 22 203 0.0 0.0 0.00 0.00 0.00 99 1021.6
20260901053950 22 203 0.0 0.0 0.00 0.00 0.00 99 1021.6
20260901053345 22 203 0.0 0.0 0.00 0.00 0.00 99 1021.3
20260901051513 22 248 0.0 0.0 0.00 0.00 0.00 99 1021.6
20260901050908 22 270 0.0 0.0 0.00 0.00 0.00 99 1021.6
20260901050325 22 270 0.0 0.0 0.00 0.00 0.00 99 1021.6
20260901045722 22 203 0.0 0.0 0.00 0.00 0.00 99 1021.6
20260901045114 22 225 0.0 0.0 0.00 0.00 0.00 99 1021.6
20260901044510 22 225 0.0 0.0 0.00 0.00 0.00 99 1021.6
20260901042107 22 203 0.0 0.0 0.00 0.00 0.00 99 1022.0
20260901041548 22 203 0.0 0.0 0.00 0.00 0.00 99 1022.0
20260901040347 22 225 0.0 0.0 0.00 0.00 0.00 99 1021.6
20260901035745 23 203 0.0 0.0 0.00 0.00 0.00 99 1021.6
20260901035136 23 225 0.0 0.0 0.00 0.00 0.00 99 1022.0
20260901033909 23 203 0.0 0.0 0.00 0.00 0.00 99 1022.0
20260901033312 23 248 0.0 0.0 0.00 0.00 0.00 99 1022.0
20260901032710 23 203 0.0 0.0 0.00 0.00 0.00 99 1022.0
20260901031510 23 203 0.0 0.0 0.00 0.00 0.00 99 1022.0
20260901030932 23 203 0.0 0.0 0.00 0.00 0.00 99 1022.0
20260901030349 23 203 0.0 0.0 0.00 0.00 0.00 99 1022.0
20260901025131 23 203 0.0 0.0 0.00 0.00 0.00 99 1022.0
20260901024522 23 203 0.0 0.0 0.00 0.00 0.00 99 1022.0
20260901023947 23 203 0.0 0.0 0.00 0.00 0.00 99 1022.0
20260901023313 23 203 0.0 0.0 0.00 0.00 0.00 99 1022.0
20260901022124 24 203 0.0 0.0 0.00 0.00 0.00 99 1022.0
20260901021528 24 225 0.0 0.0 0.00 0.00 0.00 99 1022.0
20260901020927 24 203 0.0 0.0 0.00 0.00 0.00 99 1022.0
20260901015726 24 203 0.0 0.0 0.00 0.00 0.00 99 1021.6
20260901015140 24 203 0.0 0.0 0.00 0.00 0.00 99 1021.6
20260901014526 25 203 0.0 0.0 0.00 0.00 0.00 99 1021.6
20260901013923 25 203 0.0 0.0 0.00 0.00 0.00 99 1021.6
20260901013343 25 225 0.0 0.0 0.00 0.00 0.00 99 1021.6
20260901012709 25 225 0.0 0.0 0.00 0.00 0.00 99 1021.3
20260901012114 25 203 0.0 0.0 0.00 0.00 0.00 99 1021.3
20260901011528 25 225 0.0 0.0 0.00 0.00 0.00 99 1020.9
20260901010940 25 225 0.0 0.0 0.00 0.00 0.00 99 1020.9
20260901005141 25 225 1.6 3.2 0.00 0.00 0.00 99 1020.6
20260901004538 25 203 3.2 3.2 0.00 0.00 0.00 99 1020.6
20260901003923 26 203 0.0 0.0 0.00 0.00 0.00 99 1020.6
20260901003311 26 225 0.0 1.6 0.00 0.00 0.00 99 1020.6
20260901002738 26 203 3.2 3.2 0.00 0.00 0.00 99 1020.6
20260901002150 26 203 0.0 3.2 0.00 0.00 0.00 99 1020.6
20260901001508 26 203 0.0 0.0 0.00 0.00 0.00 99 1020.6
20260901000923 26 248 0.0 3.2 0.00 0.00 0.00 98 1020.6
20260901000321 26 203 1.6 3.2 0.00 0.00 0.00 98 1020.3
20260831235719 27 225 1.6 3.2 0.00 0.00 0.00 97 1020.6
20260831235146 27 248 1.6 3.2 0.00 0.00 0.00 97 1020.6
20260831233339 27 203 4.8 6.4 0.00 0.00 0.00 95 1020.6
20260831232713 28 180 4.8 4.8 0.00 0.00 0.00 92 1020.6
20260831232146 28 180 4.8 4.8 0.00 0.00 0.00 90 1020.6
20260831231544 29 203 3.2 3.2 0.00 0.00 0.00 88 1020.6
20260831230947 30 225 4.8 4.8 0.00 0.00 0.00 84 1020.6
20260831225739 31 225 4.8 4.8 0.00 0.00 0.00 80 1020.6
20260831225115 32 225 3.2 3.2 0.00 0.00 0.00 77 1020.6
20260831224536 31 203 4.8 6.4 0.00 0.00 0.00 78 1020.6
20260831223917 35 203 4.8 4.8 0.00 0.00 0.00 69 1020.6
20260831223336 33 158 4.8 6.4 0.00 0.00 0.00 74 1020.6
20260831222727 33 225 4.8 6.4 0.00 0.00 0.00 73 1020.6
20260831222122 36 225 3.2 4.8 0.00 0.00 0.00 66 1020.6
20260831220918 36 203 3.2 3.2 0.00 0.00 0.00 62 1020.9
20260831215707 36 225 4.8 4.8 0.00 0.00 0.00 62 1020.9
20260831215136 36 270 3.2 3.2 0.00 0.00 0.00 61 1020.9
20260831214533 35 180 3.2 3.2 0.00 0.00 0.00 60 1020.9
20260831213331 36 23 1.6 4.8 0.00 0.00 0.00 57 1020.9
20260831212707 36 225 6.4 6.4 0.00 0.00 0.00 57 1021.3
20260831212135 36 23 0.0 0.0 0.00 0.00 0.00 58 1020.9
20260831211535 36 225 1.6 3.2 0.00 0.00 0.00 59 1020.9
20260831210915 35 225 3.2 6.4 0.00 0.00 0.00 62 1020.9
20260831210325 37 248 4.8 6.4 0.00 0.00 0.00 59 1020.9
20260831205723 36 135 0.0 8.0 0.00 0.00 0.00 60 1020.9
20260831205140 35 248 4.8 4.8 0.00 0.00 0.00 63 1021.3
20260831204545 36 248 4.8 6.4 0.00 0.00 0.00 61 1021.3
20260831203911 37 270 6.4 8.0 0.00 0.00 0.00 59 1021.3
20260831203340 37 203 6.4 6.4 0.00 0.00 0.00 59 1021.3
20260831202743 37 135 1.6 6.4 0.00 0.00 0.00 60 1021.3
20260831202143 37 180 3.2 6.4 0.00 0.00 0.00 59 1021.3
20260831201516 35 113 3.2 4.8 0.00 0.00 0.00 65 1021.6
20260831200934 35 225 3.2 8.0 0.00 0.00 0.00 64 1021.6
20260831200326 34 135 1.6 4.8 0.00 0.00 0.00 65 1021.6
20260831195737 35 180 4.8 4.8 0.00 0.00 0.00 65 1021.6
20260831195147 35 203 1.6 4.8 0.00 0.00 0.00 62 1022.0
20260831194547 33 203 4.8 4.8 0.00 0.00 0.00 73 1022.0
20260831193915 34 158 0.0 4.8 0.00 0.00 0.00 71 1022.0
20260831193317 32 225 3.2 4.8 0.00 0.00 0.00 74 1022.0
20260831192719 32 338 1.6 6.4 0.00 0.00 0.00 75 1022.0
20260831192132 35 23 3.2 4.8 0.00 0.00 0.00 67 1022.0
20260831191542 34 23 0.0 0.0 0.00 0.00 0.00 68 1022.0
20260831190908 35 203 6.4 6.4 0.00 0.00 0.00 68 1022.3
20260831190327 35 225 3.2 6.4 0.00 0.00 0.00 67 1022.0
20260831185722 34 203 4.8 4.8 0.00 0.00 0.00 70 1022.3
20260831185149 33 203 4.8 4.8 0.00 0.00 0.00 72 1022.3
20260831184509 32 270 4.8 6.4 0.00 0.00 0.00 74 1022.3
20260831183315 32 338 4.8 8.0 0.00 0.00 0.00 75 1022.6
20260831182743 32 113 3.2 4.8 0.00 0.00 0.00 74 1022.6
20260831182120 32 248 3.2 4.8 0.00 0.00 0.00 74 1022.6
20260831181508 32 45 1.6 4.8 0.00 0.00 0.00 76 1022.6
20260831180910 32 270 4.8 4.8 0.00 0.00 0.00 77 1022.6
20260831180345 32 248 4.8 4.8 0.00 0.00 0.00 76 1023.0
20260831175718 32 248 0.0 4.8 0.00 0.00 0.00 75 1022.6
20260831175128 32 180 3.2 4.8 0.00 0.00 0.00 75 1023.0
20260831174542 32 203 1.6 3.2 0.00 0.00 0.00 74 1023.0
20260831173939 32 315 3.2 6.4 0.00 0.00 0.00 74 1023.0
20260831173329 32 180 4.8 4.8 0.00 0.00 0.00 75 1023.0
20260831172706 32 270 3.2 3.2 0.00 0.00 0.00 75 1023.0
20260831172136 32 248 1.6 6.4 0.00 0.00 0.00 74 1023.0
20260831171550 32 225 0.0 0.0 0.00 0.00 0.00 75 1023.0
20260831170347 32 293 0.0 4.8 0.00 0.00 0.00 75 1023.0
20260831165742 31 45 0.0 0.0 0.00 0.00 0.00 81 1023.0
20260831165109 30 203 1.6 1.6 0.00 0.00 0.00 79 1023.3
20260831164546 31 23 0.0 4.8 0.00 0.00 0.00 79 1023.3
20260831163913 30 23 0.0 3.2 0.00 0.00 0.00 81 1023.3
20260831162735 30 90 0.0 0.0 0.00 0.00 0.00 80 1023.3
20260831162144 31 180 0.0 1.6 0.00 0.00 0.00 78 1023.3
20260831161515 31 0 1.6 3.2 0.00 0.00 0.00 77 1023.3
20260831160937 31 203 3.2 6.4 0.00 0.00 0.00 77 1023.3
20260831160347 32 225 1.6 4.8 0.00 0.00 0.00 75 1023.3
20260831155723 33 180 4.8 6.4 0.00 0.00 0.00 74 1023.3
20260831155135 32 158 6.4 6.4 0.00 0.00 0.00 77 1023.3
20260831153308 30 203 3.2 4.8 0.00 0.00 0.00 82 1023.3
20260831152717 30 225 3.2 3.2 0.00 0.00 0.00 84 1023.3
20260831152111 30 225 3.2 3.2 0.00 0.00 0.00 81 1023.3
20260831151532 31 45 3.2 3.2 0.00 0.00 0.00 80 1023.3
20260831150926 30 45 3.2 3.2 0.00 0.00 0.00 83 1023.3
20260831150317 30 45 3.2 3.2 0.00 0.00 0.00 83 1023.3
20260831145150 28 180 0.0 0.0 0.00 0.00 0.00 87 1023.3
20260831144533 28 135 0.0 0.0 0.00 0.00 0.00 89 1023.3
20260831143922 28 203 1.6 1.6 0.00 0.00 0.00 88 1023.3
20260831143331 28 23 0.0 3.2 0.00 0.00 0.00 87 1023.3
20260831142706 27 158 0.0 3.2 0.00 0.00 0.00 89 1023.3
20260831142118 27 180 1.6 1.6 0.00 0.00 0.00 91 1023.3
20260831141536 27 158 0.0 0.0 0.00 0.00 0.00 89 1023.3
20260831140929 27 270 0.0 3.2 0.00 0.00 0.00 91 1023.3
20260831140339 26 315 1.6 3.2 0.00 0.00 0.00 93 1023.3
20260831135715 26 180 3.2 4.8 0.00 0.00 0.00 92 1023.3
20260831135125 26 45 0.0 3.2 0.00 0.00 0.00 93 1023.3
20260831134535 25 270 0.0 0.0 0.00 0.00 0.00 99 1023.3
20260831133340 23 203 1.6 3.2 0.00 0.00 0.00 99 1023.3
20260831132733 23 225 4.8 4.8 0.00 0.00 0.00 99 1023.3
20260831132121 23 180 4.8 4.8 0.00 0.00 0.00 99 1023.3
20260831131513 23 203 0.0 0.0 0.00 0.00 0.00 99 1023.3
20260831130314 23 225 0.0 0.0 0.00 0.00 0.00 99 1023.3
20260831125714 22 203 0.0 0.0 0.00 0.00 0.00 99 1023.3
20260831125135 22 180 0.0 0.0 0.00 0.00 0.00 99 1023.3
20260831123910 22 203 3.2 3.2 0.00 0.00 0.00 99 1023.0
20260831123350 22 180 0.0 3.2 0.00 0.00 0.00 99 1023.0
20260831122713 21 158 1.6 4.8 0.00 0.00 0.00 99 1023.0
20260831122148 21 225 0.0 1.6 0.00 0.00 0.00 99 1023.0
20260831121520 21 180 0.0 3.2 0.00 0.00 0.00 99 1023.0
20260831120318 21 203 0.0 0.0 0.00 0.00 0.00 99 1023.0
20260831115743 21 270 0.0 0.0 0.00 0.00 0.00 99 1023.0
20260831114546 21 180 0.0 0.0 0.00 0.00 0.00 99 1023.0
20260831113932 21 270 0.0 3.2 0.00 0.00 0.00 99 1023.0
20260831113326 21 180 6.4 6.4 0.00 0.00 0.00 99 1023.0
20260831112739 20 203 0.0 0.0 0.00 0.00 0.00 99 1023.0
20260831111510 20 180 0.0 0.0 0.00 0.00 0.00 99 1023.0
20260831110946 20 270 0.0 0.0 0.00 0.00 0.00 99 1022.6
20260831105122 21 203 0.0 0.0 0.00 0.00 0.00 99 1022.6
20260831104545 21 203 0.0 0.0 0.00 0.00 0.00 99 1022.6
20260831103922 21 225 0.0 0.0 0.00 0.00 0.00 99 1022.6
20260831102731 21 203 0.0 0.0 0.00 0.00 0.00 99 1022.6
20260831102144 21 225 3.2 3.2 0.00 0.00 0.00 99 1022.6
20260831100330 21 23 0.0 0.0 0.00 0.00 0.00 99 1022.3
20260831095726 21 180 0.0 1.6 0.00 0.00 0.00 99 1022.3
20260831095136 21 180 3.2 3.2 0.00 0.00 0.00 99 1022.3
20260831094508 21 203 0.0 0.0 0.00 0.00 0.00 99 1022.3
20260831093319 21 203 0.0 3.2 0.00 0.00 0.00 99 1022.0
20260831092744 21 270 0.0 1.6 0.00 0.00 0.00 99 1022.3
20260831091515 21 203 3.2 3.2 0.00 0.00 0.00 99 1022.3
20260831090932 21 203 0.0 3.2 0.00 0.00 0.00 99 1022.3
20260831090349 21 180 0.0 1.6 0.00 0.00 0.00 99 1022.0
20260831085745 21 203 0.0 0.0 0.00 0.00 0.00 99 1022.0
20260831085143 21 248 0.0 0.0 0.00 0.00 0.00 99 1022.0
20260831084541 21 158 0.0 0.0 0.00 0.00 0.00 99 1022.0
20260831083914 21 248 0.0 0.0 0.00 0.00 0.00 99 1022.0
20260831083350 21 180 0.0 3.2 0.00 0.00 0.00 99 1022.0
20260831082735 21 180 0.0 0.0 0.00 0.00 0.00 99 1022.0
20260831082129 21 180 0.0 0.0 0.00 0.00 0.00 99 1022.0
20260831081521 21 203 0.0 0.0 0.00 0.00 0.00 99 1022.0
20260831080934 21 180 0.0 0.0 0.00 0.00 0.00 99 1022.0
20260831080325 21 203 0.0 0.0 0.00 0.00 0.00 99 1022.0